Regional Weather Roundup
Issued by NWS

Home | Current Version | Previous Version | Text Only | Print | Product List | Glossary On
Versions: 1 2 3 4 5 6 7 8 9 10 11 12 13 14 15 16 17 18 19 20 21 22 23 24 25 26 27 28 29 30 31 32 33 34 35 36 37 38 39 40 41 42 43 44 45 46 47 48 49 50
000
ASUS43 KTOP 170608
RWRKS

WEATHER ROUNDUP FOR KANSAS
NATIONAL WEATHER SERVICE GOODLAND KS
100 AM CDT THU AUG 17 2017

NOTE:  "FAIR" INDICATES FEW OR NO CLOUDS BELOW 12,000 FEET WITH NO
SIGNIFICANT WEATHER AND/OR OBSTRUCTIONS TO VISIBILITY.

KSZ001>006-013>018-027>032-041>047-170700-
NORTHWEST KANSAS

CITY           SKY/WX    TMP DP  RH WIND       PRES   REMARKS
GOODLAND       CLEAR     56  54  93 NW3       30.09R
6HR MIN TEMP:  56; 6HR MAX TEMP:  76;

HAYS           CLEAR     63  61  93 NW5       30.01R
HILL CITY      CLEAR     62  61  96 CALM      30.02S
6HR MIN TEMP:  62; 6HR MAX TEMP:  79;

RUSSELL        CLEAR     63  60  90 NW6       29.98S
6HR MIN TEMP:  63; 6HR MAX TEMP:  83;

$$

KSZ061>065-074>080-084>089-170700-
SOUTHWEST KANSAS

CITY           SKY/WX    TMP DP  RH WIND       PRES   REMARKS
DODGE CITY     CLEAR     63  58  83 NE7       30.05R
6HR MIN TEMP:  63; 6HR MAX TEMP:  86;

ELKHART          N/A     67  56  68 N7          N/A
GARDEN CITY    CLEAR     65  58  78 NE9       30.07R
6HR MIN TEMP:  64; 6HR MAX TEMP:  84;

GREAT BEND     CLEAR     65  61  87 NW7       30.00S
LIBERAL        CLEAR     65  60  84 N7        30.08R
PRATT          CLEAR     67  61  80 NW8       29.98F
6HR MIN TEMP:  67; 6HR MAX TEMP:  83;

$$

KSZ066>073-081>083-090>101-170700-
SOUTHEAST KANSAS

CITY           SKY/WX    TMP DP  RH WIND       PRES   REMARKS
CHANUTE        CLOUDY    68  67  96 S6        29.90R
6HR MIN TEMP:  68; 6HR MAX TEMP:  72; 6HR PCP:  0.29;

COFFEYVILLE    CLOUDY    69  68  96 S8        29.90S
6HR MIN TEMP:  69; 6HR MAX TEMP:  84; 6HR PCP:  0.68;

HUTCHINSON     CLEAR     67  64  90 NW5       29.94R
6HR MIN TEMP:  65; 6HR MAX TEMP:  83;

MEDICINE LODGE   N/A     67  64  90 N3        29.94F
NEWTON         CLOUDY    69  65  86 CALM      29.93S
PARSONS        CLOUDY    69  67  93 S5        29.91R
6HR MIN TEMP:  69; 6HR MAX TEMP:  72; 6HR PCP:  1.35;

WICHITA INTL   CLOUDY    68  67  96 SW6       29.91F
6HR MIN TEMP:  68; 6HR MAX TEMP:  81;

WICHITA JABRA  CLOUDY    68  67  96 S3        29.91S FOG
6HR MIN TEMP:  67; 6HR MAX TEMP:  78;

WICHITA MCCONL CLOUDY    70  68  93 S3        29.92S
WINFIELD       FOG       70  69  97 CALM      29.92R VSB 3/4
6HR MIN TEMP:  70; 6HR MAX TEMP:  73; 6HR PCP:  0.01;

$$

KSZ007>012-019>026-033>040-048>060-102>105-170700-
NORTHEAST KANSAS

CITY           SKY/WX    TMP DP  RH WIND       PRES   REMARKS
CONCORDIA      CLEAR     64  64 100 W8        29.94S
6HR MIN TEMP:  64; 6HR MAX TEMP:  81;

EMPORIA        CLOUDY    71  69  93 SW6       29.89S
6HR MIN TEMP:  70; 6HR MAX TEMP:  80;

LAWRENCE       CLOUDY    69  69 100 S5        29.85S
6HR MIN TEMP:  69; 6HR MAX TEMP:  79;

MANHATTAN      CLEAR     68  65  90 CALM      29.89S
6HR MIN TEMP:  68; 6HR MAX TEMP:  83;

MARYSVILLE     CLEAR     64  63  94 NW6       29.89S
OLATHE IND     CLOUDY    68  67  96 SW10      29.87F
6HR MIN TEMP:  68; 6HR MAX TEMP:  74; 6HR PCP:  0.01;

OLATHE EXE     CLOUDY    67  67 100 SW7       29.86F
6HR MIN TEMP:  67; 6HR MAX TEMP:  73; 6HR PCP:  0.01;

SALINA         CLEAR     69  64  84 NW8       29.94R
6HR MIN TEMP:  69; 6HR MAX TEMP:  86;

TOPEKA BILLARD CLOUDY    71  69  93 CALM      29.86R
6HR MIN TEMP:  69; 6HR MAX TEMP:  83;

TOPEKA FORBES  CLOUDY    71  69  93 S7        29.87R
6HR MIN TEMP:  71; 6HR MAX TEMP:  82;

$$




USA.gov is the U.S. government's official web portal to all federal, state and local government web resources and services.